Weather History for Farmington, MO

Change the Weather History Date:

Friday, May 10, 2013

  Actual Average Record
Temperature  
Mean Temperature 65 °F -  
Max Temperature 73 °F 72 °F 84 °F (2007)
Min Temperature 55 °F 52 °F 39 °F (1997)
Growing Degree Days 15 (Base 50)    
Moisture  
Dew Point 55 °F    
Average Humidity 73    
Maximum Humidity 88    
Minimum Humidity 53    
Precipitation  
Precipitation 0.00 in - - ()
Sea Level Pressure  
Sea Level Pressure 29.94 in    
Wind  
Wind Speed 5 mph (NW)    
Max Wind Speed 17 mph    
Max Gust Speed 23 mph    
Visibility 10 miles    
Events      
Averages and records for this station are not official NWS values.
T = Trace of Precipitation, MM = Missing Value Source: NWS Daily Summary

Daily Weather History Graph

Daily Weather History Graph

Search for Another Location

Airport:

Trip Planner

Search our weather history database for the weather conditions in past years. The results will help you decide how hot, cold, wet, or windy it might be!

Date:

Astronomy

May. 10, 2013 Rise Set
Actual Time 5:56 AM CDT 8:00 PM CDT
Civil Twilight 5:27 AM CDT 8:29 PM CDT
Nautical Twilight 4:51 AM CDT 9:05 PM CDT
Astronomical Twilight 4:13 AM CDT 9:43 PM CDT
Moon 6:20 AM CDT (5/10) 8:49 PM CDT (5/10)
Length of Visible Light 15h 02m
Length of Day
14h 04m
New Moon, 0% of the Moon is Illuminated
May 10
New Moon
May 17
First Quarter
May 24
Full
May 31
Last Quarter
Jun 8
New

Hourly Weather History & Observations

Time (CDT) Temp. Dew Point Humidity Pressure Visibility Wind Dir Wind Speed Gust Speed Precip Events Conditions
12:15 AM 66.2 °F 57.2 °F 73% 29.93 in 10.0 mi Calm Calm - N/A   Overcast
12:55 AM 64.4 °F 57.2 °F 77% 29.96 in 8.0 mi WNW 4.6 mph - N/A   Overcast
1:15 AM 66.2 °F 57.2 °F 73% 29.96 in 8.0 mi NNW 8.1 mph - N/A   Overcast
1:35 AM 64.4 °F 55.4 °F 73% 29.93 in 10.0 mi North 9.2 mph - N/A   Mostly Cloudy
1:55 AM 62.6 °F 55.4 °F 77% 29.91 in 10.0 mi NNW 8.1 mph - N/A   Mostly Cloudy
2:15 AM 62.6 °F 55.4 °F 77% 29.90 in 10.0 mi Calm Calm - N/A   Mostly Cloudy
2:35 AM 62.6 °F 55.4 °F 77% 29.90 in 10.0 mi South 5.8 mph - N/A   Overcast
2:55 AM 60.8 °F 55.4 °F 82% 29.90 in 10.0 mi South 5.8 mph - N/A   Mostly Cloudy
3:15 AM 60.8 °F 55.4 °F 82% 29.89 in 10.0 mi SSE 5.8 mph - N/A   Mostly Cloudy
3:35 AM 60.8 °F 55.4 °F 82% 29.90 in 10.0 mi SSW 3.5 mph - N/A   Scattered Clouds
3:55 AM 60.8 °F 55.4 °F 82% 29.91 in 10.0 mi Calm Calm - N/A   Scattered Clouds
4:15 AM 60.8 °F 55.4 °F 82% 29.90 in 10.0 mi Calm Calm - N/A   Scattered Clouds
4:35 AM 60.8 °F 55.4 °F 82% 29.90 in 10.0 mi SSW 3.5 mph - N/A   Mostly Cloudy
4:55 AM 60.8 °F 55.4 °F 82% 29.90 in 10.0 mi SSW 3.5 mph - N/A   Mostly Cloudy
5:15 AM 60.8 °F 55.4 °F 82% 29.91 in 10.0 mi NNW 5.8 mph - N/A   Scattered Clouds
5:35 AM 60.8 °F 55.4 °F 82% 29.91 in 10.0 mi NW 6.9 mph - N/A   Overcast
5:55 AM 60.8 °F 57.2 °F 88% 29.91 in 10.0 mi NNW 3.5 mph - N/A   Overcast
6:15 AM 60.8 °F 57.2 °F 88% 29.91 in 10.0 mi Calm Calm - N/A   Overcast
6:35 AM 60.8 °F 57.2 °F 88% 29.91 in 10.0 mi Calm Calm - N/A   Overcast
7:15 AM 60.8 °F 57.2 °F 88% 29.91 in 10.0 mi Calm Calm - N/A   Mostly Cloudy
7:35 AM 62.6 °F 57.2 °F 82% 29.92 in 10.0 mi Calm Calm - N/A   Mostly Cloudy
8:15 AM 62.6 °F 57.2 °F 82% 29.92 in 10.0 mi WNW 3.5 mph - N/A   Scattered Clouds
8:35 AM 64.4 °F 55.4 °F 73% 29.92 in 10.0 mi Calm Calm - N/A   Partly Cloudy
8:55 AM 64.4 °F 57.2 °F 77% 29.92 in 10.0 mi West 4.6 mph - N/A   Partly Cloudy
9:15 AM 66.2 °F 55.4 °F 68% 29.92 in 10.0 mi West 8.1 mph - N/A   Clear
9:35 AM 66.2 °F 55.4 °F 68% 29.92 in 10.0 mi WNW 8.1 mph - N/A   Scattered Clouds
9:55 AM 66.2 °F 55.4 °F 68% 29.92 in 10.0 mi NW 9.2 mph - N/A   Mostly Cloudy
10:15 AM 68.0 °F 57.2 °F 68% 29.93 in 10.0 mi WSW 5.8 mph - N/A   Mostly Cloudy
10:35 AM 68.0 °F 57.2 °F 68% 29.93 in 10.0 mi WNW 5.8 mph - N/A   Overcast
10:55 AM 69.8 °F 57.2 °F 64% 29.93 in 10.0 mi WNW 5.8 mph - N/A   Mostly Cloudy
11:15 AM 68.0 °F 57.2 °F 68% 29.93 in 10.0 mi NW 6.9 mph - N/A   Overcast
11:35 AM 66.2 °F 57.2 °F 73% 29.94 in 10.0 mi WNW 9.2 mph - N/A   Overcast
12:15 PM 69.8 °F 57.2 °F 64% 29.92 in 10.0 mi North 6.9 mph - N/A   Mostly Cloudy
12:35 PM 69.8 °F 57.2 °F 64% 29.92 in 10.0 mi North 6.9 mph - N/A   Mostly Cloudy
12:55 PM 69.8 °F 57.2 °F 64% 29.92 in 10.0 mi NW 6.9 mph - N/A   Mostly Cloudy
1:15 PM 69.8 °F 57.2 °F 64% 29.92 in 10.0 mi Calm Calm - N/A   Overcast
1:35 PM 69.8 °F 57.2 °F 64% 29.92 in 10.0 mi NNW 3.5 mph - N/A   Overcast
1:55 PM 69.8 °F 57.2 °F 64% 29.93 in 10.0 mi WNW 9.2 mph - N/A   Mostly Cloudy
2:15 PM 71.6 °F 57.2 °F 60% 29.92 in 10.0 mi West 6.9 mph - N/A   Partly Cloudy
2:35 PM 71.6 °F 55.4 °F 57% 29.92 in 10.0 mi WNW 4.6 mph - N/A   Scattered Clouds
2:55 PM 71.6 °F 55.4 °F 57% 29.91 in 10.0 mi NW 6.9 mph - N/A   Mostly Cloudy
3:15 PM 73.4 °F 55.4 °F 53% 29.90 in 10.0 mi NNW 6.9 mph - N/A   Mostly Cloudy
3:35 PM 71.6 °F 57.2 °F 60% 29.91 in 10.0 mi NNW 17.3 mph 23.0 mph N/A   Mostly Cloudy
3:55 PM 69.8 °F 59.0 °F 68% 29.91 in 10.0 mi NW 10.4 mph - N/A   Partly Cloudy
4:15 PM 69.8 °F 57.2 °F 64% 29.92 in 10.0 mi North 11.5 mph 21.9 mph N/A   Partly Cloudy
4:35 PM 69.8 °F 57.2 °F 64% 29.93 in 10.0 mi NNW 10.4 mph 20.7 mph N/A   Mostly Cloudy
4:55 PM 68.0 °F 55.4 °F 64% 29.93 in 10.0 mi North 10.4 mph - N/A   Mostly Cloudy
5:35 PM 68.0 °F 55.4 °F 64% 29.93 in 10.0 mi NNW 13.8 mph 17.3 mph N/A   Scattered Clouds
5:55 PM 66.2 °F 53.6 °F 64% 29.94 in 10.0 mi NW 11.5 mph 18.4 mph N/A   Scattered Clouds
6:15 PM 66.2 °F 53.6 °F 64% 29.94 in 10.0 mi NNW 9.2 mph - N/A   Mostly Cloudy
6:35 PM 64.4 °F 53.6 °F 68% 29.95 in 10.0 mi NNW 13.8 mph 17.3 mph N/A   Overcast
6:55 PM 64.4 °F 53.6 °F 68% 29.95 in 10.0 mi North 11.5 mph 17.3 mph N/A   Mostly Cloudy
7:15 PM 62.6 °F 53.6 °F 72% 29.95 in 10.0 mi NNW 12.7 mph 17.3 mph N/A   Mostly Cloudy
7:35 PM 60.8 °F 53.6 °F 77% 29.96 in 10.0 mi NNW 13.8 mph 19.6 mph N/A   Mostly Cloudy
7:55 PM 60.8 °F 51.8 °F 72% 29.97 in 10.0 mi North 11.5 mph 20.7 mph N/A   Overcast
8:15 PM 59.0 °F 51.8 °F 77% 29.98 in 10.0 mi NNW 11.5 mph 18.4 mph N/A   Overcast
8:35 PM 59.0 °F 51.8 °F 77% 29.98 in 10.0 mi NNW 8.1 mph 16.1 mph N/A   Overcast
8:55 PM 59.0 °F 51.8 °F 77% 29.99 in 10.0 mi NNW 9.2 mph - N/A   Overcast
9:15 PM 59.0 °F 51.8 °F 77% 30.00 in 10.0 mi North 8.1 mph - N/A   Overcast
9:35 PM 57.2 °F 51.8 °F 82% 30.00 in 10.0 mi NNW 5.8 mph - N/A   Overcast
9:55 PM 57.2 °F 51.8 °F 82% 30.00 in 10.0 mi North 8.1 mph - N/A   Overcast
10:15 PM 57.2 °F 51.8 °F 82% 30.01 in 10.0 mi North 5.8 mph - N/A   Overcast
10:35 PM 57.2 °F 51.8 °F 82% 30.01 in 10.0 mi NNW 5.8 mph - N/A   Overcast
10:55 PM 57.2 °F 51.8 °F 82% 30.02 in 10.0 mi North 5.8 mph - N/A   Overcast
11:15 PM 57.2 °F 50.0 °F 77% 30.02 in 10.0 mi NNW 5.8 mph - N/A   Overcast
11:35 PM 57.2 °F 51.8 °F 82% 30.03 in 10.0 mi NNW 3.5 mph - N/A   Overcast
11:55 PM 55.4 °F 51.8 °F 88% 30.03 in 10.0 mi NNW 6.9 mph - N/A   Overcast